owner,sensor,date,latitude,longitude,vertical_datum,direction_of_sea_water_velocity,sea_water_speed,upward_sea_water_velocity,qcFlag 
TABS,ioos:station:wmo:42044:1,2017-10-01T00:00:00Z,26.1914,-97.0507,2.0,208.967862,18.66522167,-99999.0,'11111222,11111222,99999999' 
TABS,ioos:station:wmo:42044:1,2017-10-01T00:30:00Z,26.1914,-97.0507,2.0,206.2536339,17.29400474,-99999.0,'11111222,11111222,99999999' 
TABS,ioos:station:wmo:42044:1,2017-10-01T01:00:00Z,26.1914,-97.0507,2.0,212.2525547,20.12530745,-99999.0,'11111222,11111222,99999999' 
TABS,ioos:station:wmo:42044:1,2017-10-01T01:30:00Z,26.1914,-97.0507,2.0,196.3593938,14.05922117,-99999.0,'11111222,11111222,99999999' 
TABS,ioos:station:wmo:42044:1,2017-10-01T02:00:00Z,26.1914,-97.0507,2.0,191.3096956,16.31686244,-99999.0,'11111222,11111222,99999999' 
TABS,ioos:station:wmo:42044:1,2017-10-01T02:30:00Z,26.1914,-97.0507,2.0,203.1198576,16.2990828,-99999.0,'11111222,11111222,99999999' 
TABS,ioos:station:wmo:42044:1,2017-10-01T03:00:00Z,26.1914,-97.0507,2.0,202.4543402,27.20242085,-99999.0,'11111222,11111222,99999999' 
TABS,ioos:station:wmo:42044:1,2017-10-01T03:30:00Z,26.1914,-97.0507,2.0,203.8549542,16.26993546,-99999.0,'11111222,11111222,99999999' 
TABS,ioos:station:wmo:42044:1,2017-10-01T04:00:00Z,26.1914,-97.0507,2.0,200.459041,24.26032358,-99999.0,'11111222,11111222,99999999' 
TABS,ioos:station:wmo:42044:1,2017-10-01T04:30:00Z,26.1914,-97.0507,2.0,190.4706649,14.196408,-99999.0,'11111222,11111222,99999999' 
TABS,ioos:station:wmo:42044:1,2017-10-01T05:00:00Z,26.1914,-97.0507,2.0,173.0808884,31.37851016,-99999.0,'11111222,11111222,99999999' 
TABS,ioos:station:wmo:42044:1,2017-10-01T05:30:00Z,26.1914,-97.0507,2.0,179.5377379,26.04084676,-99999.0,'11111222,11111222,99999999' 
TABS,ioos:station:wmo:42044:1,2017-10-01T06:00:00Z,26.1914,-97.0507,2.0,179.4749586,32.75137402,-99999.0,'11111222,11111222,99999999' 
TABS,ioos:station:wmo:42044:1,2017-10-01T06:30:00Z,26.1914,-97.0507,2.0,177.9475202,26.80719493,-99999.0,'11111222,11111222,99999999' 
TABS,ioos:station:wmo:42044:1,2017-10-01T07:00:00Z,26.1914,-97.0507,2.0,184.3557298,31.8620354,-99999.0,'11111222,11111222,99999999' 
TABS,ioos:station:wmo:42044:1,2017-10-01T07:30:00Z,26.1914,-97.0507,2.0,183.2408088,24.40904136,-99999.0,'11111222,11111222,99999999' 
TABS,ioos:station:wmo:42044:1,2017-10-01T08:00:00Z,26.1914,-97.0507,2.0,172.378124,19.60318597,-99999.0,'11111222,11111222,99999999' 
TABS,ioos:station:wmo:42044:1,2017-10-01T08:30:00Z,26.1914,-97.0507,2.0,160.2585758,19.83579845,-99999.0,'11111222,11111222,99999999' 
TABS,ioos:station:wmo:42044:1,2017-10-01T09:00:00Z,26.1914,-97.0507,2.0,172.4013422,19.81398496,-99999.0,'11111222,11111222,99999999' 
TABS,ioos:station:wmo:42044:1,2017-10-01T09:30:00Z,26.1914,-97.0507,2.0,165.8730255,16.88050058,-99999.0,'11111222,11111222,99999999' 
TABS,ioos:station:wmo:42044:1,2017-10-01T10:00:00Z,26.1914,-97.0507,2.0,149.7987081,14.17389855,-99999.0,'11111222,11111222,99999999' 
TABS,ioos:station:wmo:42044:1,2017-10-01T10:30:00Z,26.1914,-97.0507,2.0,160.8752017,14.71198151,-99999.0,'11111222,11111222,99999999' 
TABS,ioos:station:wmo:42044:1,2017-10-01T11:00:00Z,26.1914,-97.0507,2.0,151.9251374,15.10764707,-99999.0,'11111222,11111222,99999999' 
TABS,ioos:station:wmo:42044:1,2017-10-01T11:30:00Z,26.1914,-97.0507,2.0,172.2637747,11.51479917,-99999.0,'11111222,11111222,99999999' 
TABS,ioos:station:wmo:42044:1,2017-10-01T12:00:00Z,26.1914,-97.0507,2.0,178.1219165,9.154916712,-99999.0,'11133222,11111222,99999999' 
TABS,ioos:station:wmo:42044:1,2017-10-01T12:30:00Z,26.1914,-97.0507,2.0,166.4208468,11.24430967,-99999.0,'11111222,11111222,99999999' 
TABS,ioos:station:wmo:42044:1,2017-10-01T13:00:00Z,26.1914,-97.0507,2.0,167.0695351,10.6808333,-99999.0,'11111222,11111222,99999999' 
TABS,ioos:station:wmo:42044:1,2017-10-01T13:30:00Z,26.1914,-97.0507,2.0,161.5954741,11.8458938,-99999.0,'11111222,11111222,99999999' 
TABS,ioos:station:wmo:42044:1,2017-10-01T14:00:00Z,26.1914,-97.0507,2.0,152.5431115,17.24217214,-99999.0,'11111222,11111222,99999999' 
TABS,ioos:station:wmo:42044:1,2017-10-01T14:30:00Z,26.1914,-97.0507,2.0,180.7456311,29.19247335,-99999.0,'11111222,11111222,99999999' 
TABS,ioos:station:wmo:42044:1,2017-10-01T15:00:00Z,26.1914,-97.0507,2.0,184.5779189,48.73549528,-99999.0,'11111222,11111222,99999999' 
TABS,ioos:station:wmo:42044:1,2017-10-01T15:30:00Z,26.1914,-97.0507,2.0,183.0950388,38.70646716,-99999.0,'11111222,11111222,99999999' 
TABS,ioos:station:wmo:42044:1,2017-10-01T16:00:00Z,26.1914,-97.0507,2.0,182.4026598,45.07963731,-99999.0,'11111222,11111222,99999999' 
TABS,ioos:station:wmo:42044:1,2017-10-01T16:30:00Z,26.1914,-97.0507,2.0,176.3540897,14.94023427,-99999.0,'11111222,11111222,99999999' 
TABS,ioos:station:wmo:42044:1,2017-10-01T17:00:00Z,26.1914,-97.0507,2.0,177.7223192,24.40928102,-99999.0,'11111222,11111222,99999999' 
TABS,ioos:station:wmo:42044:1,2017-10-01T17:30:00Z,26.1914,-97.0507,2.0,178.1263009,10.70572277,-99999.0,'11111222,11111222,99999999' 
TABS,ioos:station:wmo:42044:1,2017-10-01T18:00:00Z,26.1914,-97.0507,2.0,178.6104287,26.8078813,-99999.0,'11111222,11111222,99999999' 
TABS,ioos:station:wmo:42044:1,2017-10-01T18:30:00Z,26.1914,-97.0507,2.0,175.6466872,18.31282884,-99999.0,'11111222,11111222,99999999' 
TABS,ioos:station:wmo:42044:1,2017-10-01T19:00:00Z,26.1914,-97.0507,2.0,168.0188553,7.03320695,-99999.0,'11133222,11111222,99999999' 
TABS,ioos:station:wmo:42044:1,2017-10-01T19:30:00Z,26.1914,-97.0507,2.0,167.7712274,5.382118542,-99999.0,'11133222,11111222,99999999' 
TABS,ioos:station:wmo:42044:1,2017-10-01T20:00:00Z,26.1914,-97.0507,2.0,182.7907427,8.009500609,-99999.0,'11133222,11111222,99999999' 
TABS,ioos:station:wmo:42044:1,2017-10-01T20:30:00Z,26.1914,-97.0507,2.0,159.830994,6.061699432,-99999.0,'11133222,11111222,99999999' 
TABS,ioos:station:wmo:42044:1,2017-10-01T21:00:00Z,26.1914,-97.0507,2.0,181.0362753,6.080994984,-99999.0,'11133222,11111222,99999999' 
TABS,ioos:station:wmo:42044:1,2017-10-01T21:30:00Z,26.1914,-97.0507,2.0,168.6330989,5.936438326,-99999.0,'11133222,11111222,99999999' 
TABS,ioos:station:wmo:42044:1,2017-10-01T22:00:00Z,26.1914,-97.0507,2.0,198.2931083,7.678033602,-99999.0,'11133222,11111222,99999999' 
TABS,ioos:station:wmo:42044:1,2017-10-01T22:30:00Z,26.1914,-97.0507,2.0,185.1398862,8.594562234,-99999.0,'11133222,11111222,99999999' 
TABS,ioos:station:wmo:42044:1,2017-10-01T23:00:00Z,26.1914,-97.0507,2.0,189.9403393,8.863058163,-99999.0,'11133222,11111222,99999999' 
TABS,ioos:station:wmo:42044:1,2017-10-01T23:30:00Z,26.1914,-97.0507,2.0,199.6852332,6.085671697,-99999.0,'11133222,11111222,99999999' 
TABS,ioos:station:wmo:42044:1,2017-10-02T00:00:00Z,26.1914,-97.0507,2.0,184.0294235,5.834423708,-99999.0,'11133222,11111222,99999999' 
TABS,ioos:station:wmo:42044:1,2017-10-02T00:30:00Z,26.1914,-97.0507,2.0,162.7932572,11.35834935,-99999.0,'11111222,11111222,99999999' 
TABS,ioos:station:wmo:42044:1,2017-10-02T01:00:00Z,26.1914,-97.0507,2.0,200.5914139,9.411280465,-99999.0,'11133222,11111222,99999999' 
TABS,ioos:station:wmo:42044:1,2017-10-02T01:30:00Z,26.1914,-97.0507,2.0,171.9214638,9.393210314,-99999.0,'11133222,11111222,99999999' 
TABS,ioos:station:wmo:42044:1,2017-10-02T02:00:00Z,26.1914,-97.0507,2.0,168.9665504,8.935155287,-99999.0,'11133222,11111222,99999999' 
TABS,ioos:station:wmo:42044:1,2017-10-02T02:30:00Z,26.1914,-97.0507,2.0,179.93534,8.890005624,-99999.0,'11133222,11111222,99999999' 
TABS,ioos:station:wmo:42044:1,2017-10-02T03:00:00Z,26.1914,-97.0507,2.0,177.5778523,6.625918804,-99999.0,'11133222,11111222,99999999' 
TABS,ioos:station:wmo:42044:1,2017-10-02T03:30:00Z,26.1914,-97.0507,2.0,169.5341343,10.51492748,-99999.0,'11111222,11111222,99999999' 
TABS,ioos:station:wmo:42044:1,2017-10-02T04:00:00Z,26.1914,-97.0507,2.0,176.2025505,9.059889624,-99999.0,'11133222,11111222,99999999' 
TABS,ioos:station:wmo:42044:1,2017-10-02T04:30:00Z,26.1914,-97.0507,2.0,166.5175482,8.278127808,-99999.0,'11133222,11111222,99999999' 
TABS,ioos:station:wmo:42044:1,2017-10-02T05:00:00Z,26.1914,-97.0507,2.0,184.6387585,8.778758454,-99999.0,'11133222,11111222,99999999' 
TABS,ioos:station:wmo:42044:1,2017-10-02T05:30:00Z,26.1914,-97.0507,2.0,195.2422301,7.949654081,-99999.0,'11133222,11111222,99999999' 
TABS,ioos:station:wmo:42044:1,2017-10-02T06:00:00Z,26.1914,-97.0507,2.0,176.1090996,3.979170768,-99999.0,'11133222,11111222,99999999' 
TABS,ioos:station:wmo:42044:1,2017-10-02T06:30:00Z,26.1914,-97.0507,2.0,197.9030231,7.156542461,-99999.0,'11133222,11111222,99999999' 
TABS,ioos:station:wmo:42044:1,2017-10-02T07:00:00Z,26.1914,-97.0507,2.0,224.922153,10.45104779,-99999.0,'11111222,11111222,99999999' 
TABS,ioos:station:wmo:42044:1,2017-10-02T07:30:00Z,26.1914,-97.0507,2.0,270.1086425,37.06006611,-99999.0,'11111222,11111222,99999999' 
TABS,ioos:station:wmo:42044:1,2017-10-02T08:00:00Z,26.1914,-97.0507,2.0,277.2899371,34.12581721,-99999.0,'11111222,11111222,99999999' 
TABS,ioos:station:wmo:42044:1,2017-10-02T08:30:00Z,26.1914,-97.0507,2.0,276.4135144,33.84176857,-99999.0,'11111222,11111222,99999999' 
TABS,ioos:station:wmo:42044:1,2017-10-02T09:00:00Z,26.1914,-97.0507,2.0,273.9061109,27.45376113,-99999.0,'11111222,11111222,99999999' 
TABS,ioos:station:wmo:42044:1,2017-10-02T09:30:00Z,26.1914,-97.0507,2.0,281.8400671,30.12080344,-99999.0,'11111222,11111222,99999999' 
TABS,ioos:station:wmo:42044:1,2017-10-02T10:00:00Z,26.1914,-97.0507,2.0,279.2290146,27.80996404,-99999.0,'11111222,11111222,99999999' 
TABS,ioos:station:wmo:42044:1,2017-10-02T10:30:00Z,26.1914,-97.0507,2.0,279.1750497,25.21254648,-99999.0,'11111222,11111222,99999999' 
TABS,ioos:station:wmo:42044:1,2017-10-02T11:00:00Z,26.1914,-97.0507,2.0,282.3980882,24.17370886,-99999.0,'11111222,11111222,99999999' 
TABS,ioos:station:wmo:42044:1,2017-10-02T11:30:00Z,26.1914,-97.0507,2.0,277.1457418,20.98295737,-99999.0,'11111222,11111222,99999999' 
TABS,ioos:station:wmo:42044:1,2017-10-02T12:00:00Z,26.1914,-97.0507,2.0,270.1244373,13.86003247,-99999.0,'11111222,11111222,99999999' 
TABS,ioos:station:wmo:42044:1,2017-10-02T12:30:00Z,26.1914,-97.0507,2.0,276.1339471,21.43268999,-99999.0,'11111222,11111222,99999999' 
TABS,ioos:station:wmo:42044:1,2017-10-02T13:00:00Z,26.1914,-97.0507,2.0,272.6777633,16.69822745,-99999.0,'11111222,11111222,99999999' 
TABS,ioos:station:wmo:42044:1,2017-10-02T13:30:00Z,26.1914,-97.0507,2.0,275.4314485,8.769367138,-99999.0,'11133222,11111222,99999999' 
TABS,ioos:station:wmo:42044:1,2017-10-02T14:00:00Z,26.1914,-97.0507,2.0,264.5707657,7.081765317,-99999.0,'11133222,11111222,99999999' 
TABS,ioos:station:wmo:42044:1,2017-10-02T14:30:00Z,26.1914,-97.0507,2.0,276.6339967,12.29229433,-99999.0,'11111222,11111222,99999999' 
TABS,ioos:station:wmo:42044:1,2017-10-02T15:00:00Z,26.1914,-97.0507,2.0,272.7430259,8.359575348,-99999.0,'11133222,11111222,99999999' 
TABS,ioos:station:wmo:42044:1,2017-10-02T15:30:00Z,26.1914,-97.0507,2.0,276.4743617,8.514293864,-99999.0,'11133222,11111222,99999999' 
TABS,ioos:station:wmo:42044:1,2017-10-02T16:00:00Z,26.1914,-97.0507,2.0,275.5111229,6.560320114,-99999.0,'11133222,11111222,99999999' 
TABS,ioos:station:wmo:42044:1,2017-10-02T16:30:00Z,26.1914,-97.0507,2.0,265.0036532,7.57879278,-99999.0,'11133222,11111222,99999999' 
TABS,ioos:station:wmo:42044:1,2017-10-02T17:00:00Z,26.1914,-97.0507,2.0,254.9227398,5.074682256,-99999.0,'11133222,11111222,99999999' 
TABS,ioos:station:wmo:42044:1,2017-10-02T17:30:00Z,26.1914,-97.0507,2.0,254.9452977,6.006130202,-99999.0,'11133222,11111222,99999999' 
TABS,ioos:station:wmo:42044:1,2017-10-02T18:00:00Z,26.1914,-97.0507,2.0,250.0165193,7.256913945,-99999.0,'11133222,11111222,99999999' 
TABS,ioos:station:wmo:42044:1,2017-10-02T18:30:00Z,26.1914,-97.0507,2.0,250.5893421,4.272856188,-99999.0,'11133222,11111222,99999999' 
TABS,ioos:station:wmo:42044:1,2017-10-02T19:00:00Z,26.1914,-97.0507,2.0,260.2921084,8.836526467,-99999.0,'11133222,11111222,99999999' 
TABS,ioos:station:wmo:42044:1,2017-10-02T19:30:00Z,26.1914,-97.0507,2.0,257.6413229,9.11111958,-99999.0,'11133222,11111222,99999999' 
TABS,ioos:station:wmo:42044:1,2017-10-02T20:00:00Z,26.1914,-97.0507,2.0,246.9992207,6.833227641,-99999.0,'11133222,11111222,99999999' 
TABS,ioos:station:wmo:42044:1,2017-10-02T20:30:00Z,26.1914,-97.0507,2.0,251.3102333,7.833039002,-99999.0,'11133222,11111222,99999999' 
TABS,ioos:station:wmo:42044:1,2017-10-02T21:00:00Z,26.1914,-97.0507,2.0,246.5372447,8.840955831,-99999.0,'11133222,11111222,99999999' 
TABS,ioos:station:wmo:42044:1,2017-10-02T21:30:00Z,26.1914,-97.0507,2.0,236.9173323,8.628846968,-99999.0,'11133222,11111222,99999999' 
TABS,ioos:station:wmo:42044:1,2017-10-02T22:00:00Z,26.1914,-97.0507,2.0,206.6952181,7.857563236,-99999.0,'11133222,11111222,99999999' 
TABS,ioos:station:wmo:42044:1,2017-10-02T22:30:00Z,26.1914,-97.0507,2.0,225.5223669,10.07669093,-99999.0,'11111222,11111222,99999999' 
TABS,ioos:station:wmo:42044:1,2017-10-02T23:00:00Z,26.1914,-97.0507,2.0,199.9120425,7.604643318,-99999.0,'11133222,11111222,99999999' 
TABS,ioos:station:wmo:42044:1,2017-10-02T23:30:00Z,26.1914,-97.0507,2.0,196.5134907,6.50846372,-99999.0,'11133222,11111222,99999999' 
TABS,ioos:station:wmo:42044:1,2017-10-03T00:00:00Z,26.1914,-97.0507,2.0,190.6314451,8.780734593,-99999.0,'11133222,11111222,99999999' 
TABS,ioos:station:wmo:42044:1,2017-10-03T00:30:00Z,26.1914,-97.0507,2.0,199.1092779,7.789229744,-99999.0,'11133222,11111222,99999999' 
TABS,ioos:station:wmo:42044:1,2017-10-03T01:00:00Z,26.1914,-97.0507,2.0,187.4074636,7.290850431,-99999.0,'11133222,11111222,99999999' 
TABS,ioos:station:wmo:42044:1,2017-10-03T01:30:00Z,26.1914,-97.0507,2.0,176.0060804,14.21451723,-99999.0,'11111222,11111222,99999999' 
TABS,ioos:station:wmo:42044:1,2017-10-03T02:00:00Z,26.1914,-97.0507,2.0,168.7914714,13.27316089,-99999.0,'11111222,11111222,99999999' 
TABS,ioos:station:wmo:42044:1,2017-10-03T02:30:00Z,26.1914,-97.0507,2.0,173.2651242,13.47296552,-99999.0,'11111222,11111222,99999999' 
TABS,ioos:station:wmo:42044:1,2017-10-03T03:00:00Z,26.1914,-97.0507,2.0,181.2296766,8.852039313,-99999.0,'11133222,11111222,99999999' 
TABS,ioos:station:wmo:42044:1,2017-10-03T03:30:00Z,26.1914,-97.0507,2.0,169.6775318,17.63542174,-99999.0,'11111222,11111222,99999999' 
TABS,ioos:station:wmo:42044:1,2017-10-03T04:00:00Z,26.1914,-97.0507,2.0,173.9163071,12.07801722,-99999.0,'11111222,11111222,99999999' 
TABS,ioos:station:wmo:42044:1,2017-10-03T04:30:00Z,26.1914,-97.0507,2.0,168.3676618,11.15918456,-99999.0,'11111222,11111222,99999999' 
TABS,ioos:station:wmo:42044:1,2017-10-03T05:00:00Z,26.1914,-97.0507,2.0,170.2638198,13.42333044,-99999.0,'11111222,11111222,99999999' 
TABS,ioos:station:wmo:42044:1,2017-10-03T05:30:00Z,26.1914,-97.0507,2.0,162.2967227,17.33069531,-99999.0,'11111222,11111222,99999999' 
TABS,ioos:station:wmo:42044:1,2017-10-03T06:00:00Z,26.1914,-97.0507,2.0,167.3640879,16.27415128,-99999.0,'11111222,11111222,99999999' 
TABS,ioos:station:wmo:42044:1,2017-10-03T06:30:00Z,26.1914,-97.0507,2.0,161.6709332,18.79344833,-99999.0,'11111222,11111222,99999999' 
TABS,ioos:station:wmo:42044:1,2017-10-03T07:00:00Z,26.1914,-97.0507,2.0,167.5687146,16.5377175,-99999.0,'11111222,11111222,99999999' 
TABS,ioos:station:wmo:42044:1,2017-10-03T07:30:00Z,26.1914,-97.0507,2.0,155.1406725,25.23850431,-99999.0,'11111222,11111222,99999999' 
TABS,ioos:station:wmo:42044:1,2017-10-03T08:00:00Z,26.1914,-97.0507,2.0,151.4036783,25.61459935,-99999.0,'11111222,11111222,99999999' 
TABS,ioos:station:wmo:42044:1,2017-10-03T08:30:00Z,26.1914,-97.0507,2.0,155.4424973,36.38079851,-99999.0,'11111222,11111222,99999999' 
TABS,ioos:station:wmo:42044:1,2017-10-03T09:00:00Z,26.1914,-97.0507,2.0,154.8261824,36.65101636,-99999.0,'11111222,11111222,99999999' 
TABS,ioos:station:wmo:42044:1,2017-10-03T09:30:00Z,26.1914,-97.0507,2.0,154.476174,37.15617042,-99999.0,'11111222,11111222,99999999' 
TABS,ioos:station:wmo:42044:1,2017-10-03T10:00:00Z,26.1914,-97.0507,2.0,156.9979537,35.18770524,-99999.0,'11111222,11111222,99999999' 
TABS,ioos:station:wmo:42044:1,2017-10-03T10:30:00Z,26.1914,-97.0507,2.0,156.7470046,33.28356952,-99999.0,'11111222,11111222,99999999' 
TABS,ioos:station:wmo:42044:1,2017-10-03T11:00:00Z,26.1914,-97.0507,2.0,176.314224,31.73563455,-99999.0,'11111222,11111222,99999999' 
TABS,ioos:station:wmo:42044:1,2017-10-03T11:30:00Z,26.1914,-97.0507,2.0,181.9966102,25.25533607,-99999.0,'11111222,11111222,99999999' 
TABS,ioos:station:wmo:42044:1,2017-10-03T12:00:00Z,26.1914,-97.0507,2.0,177.1017503,13.64745398,-99999.0,'11111222,11111222,99999999' 
TABS,ioos:station:wmo:42044:1,2017-10-03T12:30:00Z,26.1914,-97.0507,2.0,188.5038233,20.15155825,-99999.0,'11111222,11111222,99999999' 
TABS,ioos:station:wmo:42044:1,2017-10-03T13:00:00Z,26.1914,-97.0507,2.0,177.0225567,21.17858588,-99999.0,'11111222,11111222,99999999' 
TABS,ioos:station:wmo:42044:1,2017-10-03T13:30:00Z,26.1914,-97.0507,2.0,184.1462091,27.52203844,-99999.0,'11111222,11111222,99999999' 
TABS,ioos:station:wmo:42044:1,2017-10-03T14:00:00Z,26.1914,-97.0507,2.0,176.2255454,28.71227264,-99999.0,'11111222,11111222,99999999' 
TABS,ioos:station:wmo:42044:1,2017-10-03T14:30:00Z,26.1914,-97.0507,2.0,178.1086393,27.57501949,-99999.0,'11111222,11111222,99999999' 
TABS,ioos:station:wmo:42044:1,2017-10-03T15:00:00Z,26.1914,-97.0507,2.0,177.7240647,27.70184831,-99999.0,'11111222,11111222,99999999' 
TABS,ioos:station:wmo:42044:1,2017-10-03T15:30:00Z,26.1914,-97.0507,2.0,180.9943254,24.77373206,-99999.0,'11111222,11111222,99999999' 
TABS,ioos:station:wmo:42044:1,2017-10-03T16:00:00Z,26.1914,-97.0507,2.0,176.2740492,22.0065104,-99999.0,'11111222,11111222,99999999' 
TABS,ioos:station:wmo:42044:1,2017-10-03T16:30:00Z,26.1914,-97.0507,2.0,180.7221988,20.62163912,-99999.0,'11111222,11111222,99999999' 
TABS,ioos:station:wmo:42044:1,2017-10-03T17:00:00Z,26.1914,-97.0507,2.0,195.5180857,26.53742452,-99999.0,'11111222,11111222,99999999' 
TABS,ioos:station:wmo:42044:1,2017-10-03T17:30:00Z,26.1914,-97.0507,2.0,176.3338481,23.92896362,-99999.0,'11111222,11111222,99999999' 
TABS,ioos:station:wmo:42044:1,2017-10-03T18:00:00Z,26.1914,-97.0507,2.0,185.6412737,22.27790385,-99999.0,'11111222,11111222,99999999' 
TABS,ioos:station:wmo:42044:1,2017-10-03T18:30:00Z,26.1914,-97.0507,2.0,177.8429947,20.19430613,-99999.0,'11111222,11111222,99999999' 
TABS,ioos:station:wmo:42044:1,2017-10-03T19:00:00Z,26.1914,-97.0507,2.0,188.5904009,13.72397173,-99999.0,'11111222,11111222,99999999' 
TABS,ioos:station:wmo:42044:1,2017-10-03T19:30:00Z,26.1914,-97.0507,2.0,187.8636548,22.21894912,-99999.0,'11111222,11111222,99999999' 
TABS,ioos:station:wmo:42044:1,2017-10-03T20:00:00Z,26.1914,-97.0507,2.0,183.8777146,32.82515651,-99999.0,'11111222,11111222,99999999' 
TABS,ioos:station:wmo:42044:1,2017-10-03T20:30:00Z,26.1914,-97.0507,2.0,183.8543785,29.15595479,-99999.0,'11111222,11111222,99999999' 
TABS,ioos:station:wmo:42044:1,2017-10-03T21:00:00Z,26.1914,-97.0507,2.0,187.5798425,28.57974458,-99999.0,'11111222,11111222,99999999' 
TABS,ioos:station:wmo:42044:1,2017-10-03T21:30:00Z,26.1914,-97.0507,2.0,185.5624064,31.98060193,-99999.0,'11111222,11111222,99999999' 
TABS,ioos:station:wmo:42044:1,2017-10-03T22:00:00Z,26.1914,-97.0507,2.0,179.6968545,28.37039654,-99999.0,'11111222,11111222,99999999' 
TABS,ioos:station:wmo:42044:1,2017-10-03T22:30:00Z,26.1914,-97.0507,2.0,188.3246099,17.05975674,-99999.0,'11111222,11111222,99999999' 
TABS,ioos:station:wmo:42044:1,2017-10-03T23:00:00Z,26.1914,-97.0507,2.0,181.3540057,35.11980922,-99999.0,'11111222,11111222,99999999' 
TABS,ioos:station:wmo:42044:1,2017-10-03T23:30:00Z,26.1914,-97.0507,2.0,187.2466391,32.66090017,-99999.0,'11111222,11111222,99999999' 
TABS,ioos:station:wmo:42044:1,2017-10-04T00:00:00Z,26.1914,-97.0507,2.0,173.2639599,27.02655176,-99999.0,'11111222,11111222,99999999' 
TABS,ioos:station:wmo:42044:1,2017-10-04T00:30:00Z,26.1914,-97.0507,2.0,181.4439117,21.42680564,-99999.0,'11111222,11111222,99999999' 
TABS,ioos:station:wmo:42044:1,2017-10-04T01:00:00Z,26.1914,-97.0507,2.0,181.8840051,22.20200441,-99999.0,'11111222,11111222,99999999' 
TABS,ioos:station:wmo:42044:1,2017-10-04T01:30:00Z,26.1914,-97.0507,2.0,185.7598169,24.21224897,-99999.0,'11111222,11111222,99999999' 
TABS,ioos:station:wmo:42044:1,2017-10-04T02:00:00Z,26.1914,-97.0507,2.0,193.1211663,25.06440105,-99999.0,'11111222,11111222,99999999' 
TABS,ioos:station:wmo:42044:1,2017-10-04T02:30:00Z,26.1914,-97.0507,2.0,192.8580547,29.61258179,-99999.0,'11111222,11111222,99999999' 
TABS,ioos:station:wmo:42044:1,2017-10-04T03:00:00Z,26.1914,-97.0507,2.0,189.9127519,23.40949594,-99999.0,'11111222,11111222,99999999' 
TABS,ioos:station:wmo:42044:1,2017-10-04T03:30:00Z,26.1914,-97.0507,2.0,201.9780258,24.66231538,-99999.0,'11111222,11111222,99999999' 
TABS,ioos:station:wmo:42044:1,2017-10-04T04:00:00Z,26.1914,-97.0507,2.0,200.1633414,29.561776,-99999.0,'11111222,11111222,99999999' 
TABS,ioos:station:wmo:42044:1,2017-10-04T04:30:00Z,26.1914,-97.0507,2.0,194.5370231,21.91150611,-99999.0,'11111222,11111222,99999999' 
TABS,ioos:station:wmo:42044:1,2017-10-04T05:00:00Z,26.1914,-97.0507,2.0,193.2606177,24.19514414,-99999.0,'11111222,11111222,99999999' 
TABS,ioos:station:wmo:42044:1,2017-10-04T05:30:00Z,26.1914,-97.0507,2.0,203.4683261,25.91361225,-99999.0,'11111222,11111222,99999999' 
TABS,ioos:station:wmo:42044:1,2017-10-04T06:00:00Z,26.1914,-97.0507,2.0,206.394582,21.07726975,-99999.0,'11111222,11111222,99999999' 
TABS,ioos:station:wmo:42044:1,2017-10-04T06:30:00Z,26.1914,-97.0507,2.0,204.9422199,25.58640459,-99999.0,'11111222,11111222,99999999' 
TABS,ioos:station:wmo:42044:1,2017-10-04T07:00:00Z,26.1914,-97.0507,2.0,208.5544238,24.60263604,-99999.0,'11111222,11111222,99999999' 
TABS,ioos:station:wmo:42044:1,2017-10-04T07:30:00Z,26.1914,-97.0507,2.0,204.6509663,27.45186697,-99999.0,'11111222,11111222,99999999' 
TABS,ioos:station:wmo:42044:1,2017-10-04T08:00:00Z,26.1914,-97.0507,2.0,207.8327228,26.87964658,-99999.0,'11111222,11111222,99999999' 
TABS,ioos:station:wmo:42044:1,2017-10-04T08:30:00Z,26.1914,-97.0507,2.0,202.9385114,24.3234537,-99999.0,'11111222,11111222,99999999' 
TABS,ioos:station:wmo:42044:1,2017-10-04T09:00:00Z,26.1914,-97.0507,2.0,207.6046844,27.10560828,-99999.0,'11111222,11111222,99999999' 
TABS,ioos:station:wmo:42044:1,2017-10-04T09:30:00Z,26.1914,-97.0507,2.0,203.2513609,25.53385987,-99999.0,'11111222,11111222,99999999' 
TABS,ioos:station:wmo:42044:1,2017-10-04T10:00:00Z,26.1914,-97.0507,2.0,209.4736409,33.04694388,-99999.0,'11111222,11111222,99999999' 
TABS,ioos:station:wmo:42044:1,2017-10-04T10:30:00Z,26.1914,-97.0507,2.0,209.9714771,34.76968939,-99999.0,'11111222,11111222,99999999' 
TABS,ioos:station:wmo:42044:1,2017-10-04T11:00:00Z,26.1914,-97.0507,2.0,208.3973266,35.66116235,-99999.0,'11111222,11111222,99999999' 
TABS,ioos:station:wmo:42044:1,2017-10-04T11:30:00Z,26.1914,-97.0507,2.0,205.1539274,29.24321802,-99999.0,'11111222,11111222,99999999' 
TABS,ioos:station:wmo:42044:1,2017-10-04T12:00:00Z,26.1914,-97.0507,2.0,203.9543229,22.09291742,-99999.0,'11111222,11111222,99999999' 
TABS,ioos:station:wmo:42044:1,2017-10-04T12:30:00Z,26.1914,-97.0507,2.0,208.7568432,41.15587929,-99999.0,'11111222,11111222,99999999' 
TABS,ioos:station:wmo:42044:1,2017-10-04T13:00:00Z,26.1914,-97.0507,2.0,205.0058048,41.58836977,-99999.0,'11111222,11111222,99999999' 
TABS,ioos:station:wmo:42044:1,2017-10-04T13:30:00Z,26.1914,-97.0507,2.0,208.3556019,43.64700448,-99999.0,'11111222,11111222,99999999' 
TABS,ioos:station:wmo:42044:1,2017-10-04T14:00:00Z,26.1914,-97.0507,2.0,204.5101837,42.78559804,-99999.0,'11111222,11111222,99999999' 
TABS,ioos:station:wmo:42044:1,2017-10-04T14:30:00Z,26.1914,-97.0507,2.0,206.0078701,34.04797938,-99999.0,'11111222,11111222,99999999' 
TABS,ioos:station:wmo:42044:1,2017-10-04T15:00:00Z,26.1914,-97.0507,2.0,197.6212799,25.17110447,-99999.0,'11111222,11111222,99999999' 
TABS,ioos:station:wmo:42044:1,2017-10-04T15:30:00Z,26.1914,-97.0507,2.0,196.0417561,33.40064221,-99999.0,'11111222,11111222,99999999' 